This demonstration page uses our WeatherBlox Daily Observations layout. Learn more.

Left ArrowRight Arrow

Hourly Observations for October 15, 2019

Temp ( °F °C ) Dew Point ( °F °C ) Humidity (%) Winds ( mph kmh ) Pressure ( in mb ) Visibility ( mi km ) Precip ( " mm )
12:53 am 00:53 Clear 37 2.8 36 2.2 96 96 Calm 30.13 1020 10 16 0.00 0.00
1:53 am 01:53 Clear 36 2.2 35 1.7 97 97 Calm 30.13 1020 10 16 0.00 0.00
2:53 am 02:53 Clear 35 1.7 34 1.1 96 96 Calm 30.13 1020 10 16 0.00 0.00
3:53 am 03:53 Clear 35 1.7 34 1.1 96 96 Calm 30.11 1020 9 14 0.00 0.00
4:53 am 04:53 Clear 34 1.1 33 0.6 97 97 Calm 30.11 1020 10 16 0.00 0.00
5:53 am 05:53 Clear 33 0.6 32 0 96 96 Calm 30.12 1020 10 16 0.00 0.00
6:53 am 06:53 Clear 33 0.6 33 0.6 100 100 Calm 30.12 1020 9 14 0.00 0.00
7:53 am 07:53 Sunny 33 0.6 32 0 96 96 Calm 30.11 1020 7 11 0.00 0.00
8:53 am 08:53 Sunny 39 3.9 38 3.3 96 96 Calm 30.11 1020 9 14 0.00 0.00
9:53 am 09:53 Sunny 50 10 41 5 71 71 E 5 7 30.10 1019 10 16 0.00 0.00
10:53 am 10:53 Sunny 58 14.4 40 4.4 51 51 VRB 6 9 30.07 1018 10 16 0.00 0.00
11:53 am 11:53 Sunny 65 18.3 39 3.9 39 39 VRB 5 7 30.04 1017 10 16 0.00 0.00
12:53 pm 12:53 Sunny 69 20.6 41 5 36 36 VRB 5 7 29.99 1016 10 16 0.00 0.00
1:53 pm 13:53 Sunny 72 22.2 42 5.6 34 34 S 8 13 29.95 1014 10 16 0.00 0.00
2:53 pm 14:53 Sunny 74 23.3 44 6.7 34 34 S 5 7 29.91 1013 10 16 0.00 0.00
3:53 pm 15:53 Sunny 76 24.4 47 8.3 36 36 S 9 15 29.87 1012 10 16 0.00 0.00
4:53 pm 16:53 Sunny 76 24.4 51 10.6 42 42 SW 5 7 29.86 1011 10 16 0.00 0.00
5:53 pm 17:53 Sunny 73 22.8 52 11.1 48 48 SSW 9 15 29.85 1011 10 16 0.00 0.00
6:53 pm 18:53 Sunny 71 21.7 53 11.7 53 53 VRB 6 9 29.84 1011 10 16 0.00 0.00
7:53 pm 19:53 Clear 68 20 54 12.2 61 61 SSW 3 6 29.84 1011 10 16 0.00 0.00
8:53 pm 20:53 Partly Cloudy 67 19.4 55 12.8 66 66 S 5 7 29.83 1010 10 16 0.00 0.00
9:53 pm 21:53 Clear 66 18.9 56 13.3 70 70 S 3 6 29.81 1010 10 16 0.00 0.00
10:53 pm 22:53 Partly Cloudy 67 19.4 57 13.9 71 71 VRB 3 6 29.78 1009 10 16 0.00 0.00
11:53 pm 23:53 Cloudy 67 19.4 57 13.9 71 71 VRB 5 7 29.78 1008 10 16 0.00 0.00

Powered by AerisWeather